Torna al catalogo

GIOVE-B

AttivoNavigazioneMEO
NORAD 32781·PAYLOAD·🇪🇺 EU

Lanciato Apr 27, 2008 da Baikonur Cosmodrome

Loading…

Prossimi Passaggi (prossime 24 ore)

TLE

AggiornatoSource: Space-Track

Epoca: Sep 11, 2026, 15:40 UTC

1 32781U 08020A   26254.65338624 -.00000071  00000-0  00000-0 0  9996
2 32781  60.0734  35.9481 0003055 251.9264 108.0248  1.65405067111870

Traccia GIOVE-B in tempo reale con AllMySat

Download on the App Store